Temp
17 17 17 17 17 17 17 17 16 16 17 17 17 17 17 17 16 16 16 16 16 16 16 15 15 15 15 14 14 14 14 14 14 14 13 13 13 14 14 14 14 13
18 17 17 17 17 17 17 17 17 17 17 17 17 17 17 17 16 16 16 16 16 16 16 16 15 15 15 15 15 15 14 14 14 14 14 14 14 14 14 14 14 14
18 18 17 17 17 17 17 17 17 17 17 17 17 17 17 17 16 16 16 16 16 16 16 16 16 15 15 15 15 15 15 15 14 14 14 14 14 14 14 14 14 14
18 18 18 18 17 17 17 17 17 17 17 17 17 17 17 17 16 16 16 16 16 16 16 16 16 16 15 15 15 15 15 15 15 14 14 14 14 14 14 14 14 14
19 18 18 18 18 18 18 17 18 18 18 18 18 17 17 17 16 16 16 16 16 16 16 16 16 16 16 15 15 15 15 15 15 15 15 14 14 14 14 14 14 14
19 19 19 19 18 18 18 18 18 18 18 18 18 18 17 17 16 16 16 16 16 16 16 16 16 16 16 16 15 15 15 15 15 15 15 15 15 14 14 14 14 14
19 19 19 19 19 19 18 18 18 18 18 18 18 18 17 17 17 16 16 16 16 16 16 16 16 16 16 16 16 16 16 15 15 15 15 15 15 15 15 14 14 14
20 19 19 19 19 19 19 19 19 19 18 18 18 18 18 17 17 17 17 16 16 16 16 16 16 16 17 16 16 16 16 16 16 15 15 15 15 15 15 15 14 14
20 20 19 19 19 19 19 19 19 19 19 19 18 18 18 17 17 17 17 16 16 16 16 16 17 17 17 16 16 16 16 16 16 16 16 15 15 15 15 15 15 14
20 20 20 19 19 19 19 19 19 19 19 19 19 18 18 18 17 17 17 16 16 16 16 16 16 17 17 17 16 16 16 16 16 16 16 16 16 15 15 15 15 14
20 20 20 20 19 19 19 19 19 19 19 19 19 18 18 18 17 17 17 16 16 16 16 16 16 17 17 17 17 17 17 17 17 17 16 16 16 16 15 15 15 15
20 20 20 20 20 20 20 20 20 19 19 19 19 18 18 18 17 17 17 17 16 16 16 16 16 17 17 17 17 17 17 17 17 17 17 16 16 16 15 15 15 15
20 20 20 20 20 20 20 20 20 20 19 19 19 18 18 18 17 17 17 17 17 17 17 16 16 17 17 17 17 17 17 17 17 17 17 16 16 16 15 15 15 15
21 21 20 20 20 20 20 20 20 20 20 19 19 19 18 18 18 17 17 17 17 17 17 17 17 17 17 17 17 17 17 17 17 17 17 16 16 16 15 15 15 15
21 21 20 20 20 20 20 20 20 20 20 19 19 19 19 18 18 17 17 17 17 17 17 17 17 17 17 17 17 17 17 17 17 17 17 16 16 16 16 15 15 15
21 21 21 20 20 20 20 20 20 20 19 19 19 19 19 19 18 18 18 17 17 17 17 17 17 17 17 17 17 17 17 17 17 17 17 16 16 16 16 16 15 15
21 21 21 20 20 20 20 20 20 20 20 19 19 19 19 19 19 18 18 18 18 18 17 17 17 17 17 17 17 17 17 17 17 17 17 17 16 16 16 16 16 15
21 21 21 20 21 21 21 21 20 20 20 19 19 19 19 19 19 19 19 18 18 18 18 18 18 18 18 18 17 17 17 17 17 17 17 17 16 16 16 16 16 16
22 21 21 21 21 21 21 21 20 20 20 20 20 20 19 19 19 19 19 19 18 18 18 18 18 18 18 18 18 18 17 17 17 17 17 17 17 16 16 16 16 16
22 21 21 21 21 21 21 21 21 21 21 20 20 20 19 19 19 19 19 19 18 18 18 18 18 18 18 18 18 18 18 17 17 17 17 17 17 17 16 16 16 16
22 22 22 21 21 21 21 21 21 21 21 21 21 20 20 20 20 20 19 19 19 19 18 18 19 19 19 18 18 18 18 18 17 17 17 17 17 17 16 16 16 16
22 22 22 22 22 21 21 21 21 21 21 21 21 21 21 20 20 20 20 20 20 19 18 19 19 20 19 19 19 18 18 18 17 17 17 17 17 17 17 17 16 16
22 22 22 22 21 21 21 21 21 21 21 21 20 20 20 20 20 21 21 20 20 20 19 19 20 20 20 20 19 19 18 17 17 17 17 17 17 17 17 17 17 16
22 21 21 22 21 21 21 22 22 22 22 21 21 20 20 21 20 20 20 20 20 20 20 20 20 21 21 20 20 20 18 17 17 17 16 16 17 17 17 17 17 17
21 20 20 21 21 21 22 22 22 22 22 21 21 20 21 21 21 20 20 20 20 20 20 20 20 21 21 20 20 20 19 18 17 16 16 16 16 16 17 17 17 17
20 20 20 20 20 21 21 21 21 21 21 21 20 20 20 20 20 20 20 20 20 20 20 19 19 20 21 21 20 20 19 18 17 16 16 16 16 16 16 16 16 17
Height
810 811 811 811 811 811 811 811 811 811 811 811 810 810 810 810 811 811 811 811 811 811 811 811 811 811 811 811 811 810 810 810 810 809 809 809 808 808 808 807 806 806
809 810 810 810 810 810 810 810 810 810 810 810 809 809 809 810 810 810 810 810 810 811 811 811 811 811 811 810 810 810 810 810 809 809 809 808 808 808 807 807 806 806
808 808 808 809 809 809 809 809 809 809 809 809 808 808 809 809 809 809 810 810 810 810 810 810 810 810 810 810 810 809 809 809 809 808 808 808 808 807 807 807 806 806
807 807 807 808 808 808 808 808 808 808 808 808 807 807 808 808 809 809 809 809 809 809 809 809 809 809 809 809 809 809 808 808 808 808 808 807 807 807 806 806 805 805
806 806 806 806 806 806 807 806 806 806 806 806 806 806 807 807 808 808 808 808 808 808 808 808 808 807 807 808 807 808 807 807 807 807 807 806 806 806 805 805 805 804
805 805 805 805 805 805 805 805 805 805 804 805 804 805 805 805 806 806 806 806 806 806 806 806 806 806 806 806 806 806 806 806 806 806 806 805 805 804 804 804 803 803
804 804 804 804 804 804 804 803 803 803 803 803 803 803 803 803 804 804 804 805 805 805 805 805 805 805 805 805 805 804 804 804 804 804 804 804 803 803 803 802 802 802
802 803 803 803 803 802 802 802 801 802 801 801 801 801 801 801 802 802 803 803 803 803 804 803 803 803 803 803 803 803 803 802 803 803 803 802 802 802 801 801 800 800
801 802 802 801 801 801 801 801 800 800 800 800 800 799 799 799 800 800 801 801 801 802 802 802 802 801 801 801 801 801 801 801 801 801 801 801 800 800 800 800 799 798
800 800 801 800 800 800 800 799 799 799 799 798 798 798 798 798 798 798 799 799 799 799 800 800 800 799 799 799 799 799 799 799 799 799 799 799 798 798 798 798 798 797
799 799 799 799 799 799 799 798 798 797 797 797 797 797 796 796 796 796 797 797 797 797 797 797 797 798 798 798 798 798 797 797 797 797 797 797 796 796 796 796 796 795
798 798 798 798 798 798 797 797 797 796 796 796 795 795 795 795 794 794 794 794 794 794 795 795 795 796 796 796 796 796 796 795 795 795 795 795 795 794 794 794 794 794
796 796 796 796 796 796 796 796 796 796 795 795 794 794 794 793 793 793 793 792 793 793 793 793 793 794 794 794 794 794 794 794 793 793 793 793 793 793 792 793 792 792
793 793 794 794 794 794 795 794 794 794 794 794 794 793 792 792 792 792 792 791 791 791 791 791 792 792 792 792 792 792 792 792 791 791 791 791 791 790 791 791 791 790
791 791 791 792 792 792 792 792 792 792 793 793 792 792 791 791 791 791 791 790 790 790 790 790 790 790 790 790 790 790 790 790 790 789 789 789 789 788 789 789 789 788
789 789 789 789 789 789 789 789 790 790 790 790 790 790 790 790 790 789 789 789 788 788 788 788 788 787 787 788 788 788 788 788 787 787 787 787 787 786 786 786 786 786
786 786 787 787 787 787 787 787 787 787 787 787 787 787 787 787 787 787 787 787 786 786 786 786 786 785 785 786 786 786 786 786 785 785 785 785 784 784 784 784 784 784
784 784 785 785 785 785 785 785 785 784 784 784 784 784 784 784 784 784 784 784 784 784 784 783 783 782 783 783 783 783 783 783 783 783 782 782 782 782 781 781 781 782
782 782 782 782 782 782 782 782 782 782 781 781 780 781 781 781 781 781 781 781 781 781 780 780 780 780 780 780 780 780 780 780 780 780 779 779 779 779 779 779 779 779
779 779 779 779 779 779 780 780 779 779 778 778 777 777 777 777 777 777 777 777 777 777 777 776 776 776 776 777 777 777 777 777 777 777 776 776 776 776 776 776 776 776
775 776 776 776 776 776 776 776 776 775 775 775 774 774 774 773 773 773 773 773 773 773 773 772 771 771 772 773 773 773 774 774 774 773 773 773 773 773 773 773 773 773
773 773 772 772 773 773 773 772 772 771 771 771 771 771 770 770 770 769 769 769 769 769 769 769 767 767 767 768 768 769 770 770 770 769 769 769 769 769 769 769 770 770
770 770 769 769 769 769 769 768 768 767 767 767 767 766 766 766 765 765 765 765 765 765 765 764 763 763 764 764 764 764 765 765 765 765 765 765 764 765 765 765 765 766
767 767 766 766 765 765 764 764 763 763 762 762 762 762 761 761 761 761 761 761 761 760 760 760 759 759 759 760 760 760 761 761 761 761 761 760 760 760 761 761 761 761
764 764 763 762 761 761 760 759 759 758 758 758 758 757 757 757 757 758 758 757 757 756 756 756 755 754 755 755 756 756 757 757 758 757 757 756 756 756 756 756 757 757
761 760 759 758 757 756 755 755 754 754 753 753 753 753 753 753 753 754 754 754 753 752 752 752 751 750 751 751 752 752 753 753 754 754 753 752 752 752 752 752 752 753
Wind_Speed
13 13 14 14 14 13 12 11 11 10 10 10 10 10 10 9 8 8 7 5 5 5 5 5 5 4 3 3 3 4 5 5 4 4 2 1 2 3 3 4 5 6
13 13 14 14 14 13 12 11 11 11 10 10 10 11 10 10 10 10 9 6 6 6 6 6 6 6 5 5 4 4 5 5 5 5 4 3 2 1 2 2 3 4
13 13 14 14 14 13 12 11 11 11 11 11 11 11 11 11 11 12 11 9 7 7 7 8 8 8 8 7 7 6 6 6 6 6 6 6 5 5 5 4 4 4
11 12 13 13 13 12 11 11 11 11 11 12 12 12 12 12 12 12 12 11 10 8 8 9 9 9 10 9 9 9 8 8 8 8 9 9 8 8 7 6 6 6
10 10 11 12 11 11 11 11 11 11 12 13 13 13 14 13 13 13 14 13 12 10 9 10 10 10 11 11 12 12 11 11 10 9 11 11 10 10 9 8 8 7
10 10 10 10 10 10 11 11 11 12 12 13 14 15 16 16 14 13 15 15 14 12 11 11 12 12 12 12 13 13 13 13 12 11 12 12 11 11 11 10 10 9
12 11 11 11 11 12 12 12 12 13 13 14 15 16 18 18 16 13 14 16 16 15 13 13 13 13 13 13 14 15 15 15 14 13 13 13 12 11 10 10 11 11
13 13 13 13 13 13 14 14 14 14 14 15 16 17 19 19 18 15 13 15 16 16 15 14 14 14 14 14 15 15 16 16 15 15 14 14 13 11 9 9 10 11
15 14 14 15 15 16 16 15 15 15 15 15 16 16 18 19 19 17 15 15 16 16 16 15 14 15 15 16 16 16 16 16 16 16 16 15 14 12 10 9 10 11
17 17 16 17 17 17 17 18 17 17 16 16 16 15 16 17 18 19 18 17 17 17 17 16 16 15 15 16 17 17 17 17 17 17 17 16 15 13 11 10 11 11
19 19 18 18 18 18 18 18 18 18 18 18 17 16 16 15 16 17 18 18 18 19 18 18 17 17 16 15 15 16 17 18 17 17 17 17 16 15 14 12 12 12
20 20 19 19 18 17 17 16 16 16 17 18 18 17 16 15 15 16 17 18 18 19 19 19 18 18 18 16 15 16 17 17 17 17 17 17 17 16 15 14 13 12
19 20 20 19 17 16 16 15 14 14 15 15 16 16 16 16 15 15 17 18 19 20 20 20 19 19 19 18 17 17 17 18 18 18 18 18 18 17 16 16 14 12
17 19 20 18 17 16 16 16 15 14 14 13 13 15 16 16 16 16 17 18 19 20 21 20 20 20 20 19 18 18 18 18 18 19 19 19 19 19 18 17 16 14
17 18 19 18 18 17 16 16 16 16 15 14 13 14 15 15 16 17 17 19 20 20 21 21 21 22 21 21 21 20 19 19 19 20 21 21 21 20 19 18 17 16
18 18 18 18 18 16 16 16 16 17 17 17 16 15 15 16 16 17 18 19 20 21 22 22 23 23 23 22 22 22 21 21 21 21 21 22 22 22 22 21 19 18
20 19 18 19 18 17 16 16 16 17 19 19 19 18 18 18 18 19 20 21 21 22 23 23 24 24 24 23 22 22 22 22 22 21 21 22 23 24 24 23 21 19
21 21 20 20 20 19 18 17 17 18 19 21 21 22 21 21 21 21 22 23 23 24 24 25 25 25 24 24 23 23 23 23 23 22 22 23 24 24 25 24 22 21
22 22 22 22 22 22 21 20 20 21 21 22 23 23 24 24 25 25 25 25 26 26 27 28 27 26 25 25 25 25 24 25 25 25 25 25 24 25 25 25 24 22
23 23 23 23 24 24 24 24 24 24 23 23 24 24 25 26 27 28 28 28 29 29 30 30 30 29 28 27 27 27 27 27 28 28 28 27 27 26 26 26 25 24
25 25 25 24 24 25 26 27 27 27 26 26 26 26 26 27 27 28 29 30 31 31 31 32 32 32 31 30 30 29 29 29 30 30 30 30 30 29 29 28 28 27
26 26 27 26 25 26 27 28 29 30 29 29 28 28 28 28 28 29 30 31 31 32 32 33 32 32 31 31 31 30 31 32 32 33 32 32 32 32 31 31 30 29
27 28 28 28 28 28 28 29 30 31 31 31 30 30 30 31 31 31 31 32 32 32 33 33 33 31 30 31 31 30 30 32 33 34 34 34 34 34 33 33 33 32
28 28 28 29 30 30 30 31 31 32 33 32 31 32 32 32 32 32 32 32 33 33 34 34 34 32 31 31 31 30 30 30 31 33 34 35 36 36 36 36 35 34
29 28 28 29 30 31 31 32 33 33 34 33 33 33 33 32 31 30 30 31 33 34 34 34 35 34 33 32 32 31 30 28 29 31 32 33 35 36 37 37 37 36
28 28 29 29 30 31 32 32 33 33 33 34 33 33 32 32 31 28 26 27 31 34 35 35 35 35 34 33 32 32 31 29 28 29 31 33 34 35 35 36 36 37
Wind_Direction
267 268 270 271 271 272 274 275 276 277 276 270 267 267 268 265 250 242 251 263 268 275 280 279 282 286 289 298 318 332 331 327 322 316 317 346 45 44 36 33 25 21
269 268 269 270 271 271 271 271 273 275 275 273 270 267 265 258 244 239 244 254 262 267 270 275 280 279 275 273 277 298 310 310 311 305 297 289 278 301 327 355 6 5
270 268 267 268 269 269 270 270 271 272 273 273 271 268 264 257 247 242 243 249 257 260 263 269 276 277 276 271 265 273 288 297 304 301 294 291 283 285 293 295 300 310
268 267 267 268 269 270 269 269 268 266 266 268 270 269 266 260 253 247 245 249 253 256 260 264 270 273 274 274 271 270 277 285 295 298 296 296 292 288 290 288 289 295
267 268 268 269 270 270 269 267 265 263 264 266 269 270 265 257 253 251 248 248 251 254 257 260 265 270 271 273 274 273 276 279 284 292 293 296 297 293 290 285 283 290
262 262 263 265 268 269 268 267 266 264 264 266 267 269 265 256 253 256 251 247 249 253 256 259 261 264 268 270 272 275 276 277 279 284 286 290 296 295 290 283 277 279
257 256 258 260 263 264 264 265 265 264 264 266 266 268 267 258 253 260 258 249 248 249 254 260 261 261 265 268 271 274 276 277 277 277 280 284 290 294 294 288 279 274
258 256 256 257 258 260 262 264 266 267 268 269 269 268 268 261 255 258 262 254 248 246 250 258 261 259 261 264 269 274 277 280 279 275 275 278 283 288 295 296 287 277
260 258 256 257 257 257 259 262 264 267 269 271 273 272 271 266 258 255 259 257 248 246 249 253 257 260 260 261 265 270 276 280 282 278 273 274 277 280 287 293 291 284
260 259 257 257 258 259 260 262 264 265 267 269 271 273 272 271 264 256 255 256 249 246 249 249 252 257 258 260 263 266 271 276 279 277 271 271 274 276 278 285 288 287
257 259 260 260 262 265 265 267 268 268 269 269 269 270 270 271 269 259 253 252 247 244 246 248 249 251 254 259 263 266 268 270 272 272 269 268 270 272 272 277 283 287
256 258 261 264 267 268 267 267 271 272 272 271 269 268 266 266 267 260 252 250 246 242 245 248 248 248 252 258 264 267 266 265 265 265 265 265 266 267 268 271 278 285
255 257 260 265 269 267 263 263 266 270 273 275 273 270 267 263 262 257 252 250 248 244 244 247 248 249 253 258 263 265 263 261 262 262 263 263 263 264 265 266 273 282
253 255 257 263 267 263 258 261 264 265 269 275 273 268 264 262 261 258 254 251 249 246 246 248 249 251 254 258 261 261 260 260 261 262 263 263 262 263 263 264 269 277
252 253 254 258 261 257 254 258 263 264 264 266 267 264 259 258 258 258 256 253 251 249 249 249 249 251 253 257 260 261 262 264 265 265 264 264 263 263 262 262 266 272
252 253 253 253 254 254 252 254 260 264 262 260 261 262 259 255 254 254 254 253 252 251 251 251 252 253 255 257 260 262 265 268 269 267 264 263 262 262 262 262 265 268
254 255 253 249 250 255 255 254 256 258 259 259 258 259 259 256 253 251 250 250 251 251 252 252 254 256 257 259 260 261 263 265 266 266 264 262 262 261 262 263 264 266
255 256 254 248 247 252 256 255 255 254 255 256 256 257 258 256 254 252 250 250 250 251 253 254 255 257 259 260 261 260 261 261 261 262 263 263 262 261 262 263 264 265
256 256 255 250 247 250 253 254 255 255 255 256 256 258 257 256 256 255 254 253 251 252 254 255 257 258 259 260 261 260 260 260 260 261 262 263 263 262 262 262 263 263
255 255 255 253 251 250 251 253 254 255 257 257 258 258 257 257 258 258 258 258 256 255 257 259 260 261 261 260 260 260 260 260 260 261 261 263 263 263 262 261 261 261
256 256 256 255 254 252 251 252 254 255 257 257 257 257 257 259 261 262 263 263 262 261 260 262 266 267 266 263 261 261 260 260 260 260 259 260 261 262 262 261 260 260
261 259 258 258 258 255 253 254 255 256 257 257 257 257 258 259 260 262 264 265 266 265 263 265 270 273 272 269 267 264 261 259 259 258 257 258 259 260 260 260 260 259
268 265 263 263 260 257 256 257 258 259 260 259 257 257 258 259 259 261 262 264 265 265 263 265 270 274 274 274 273 269 264 260 258 257 256 255 257 258 259 259 259 259
277 271 268 266 263 260 259 259 259 261 262 262 260 259 261 262 263 264 264 264 264 264 265 265 269 273 274 273 274 273 267 262 260 257 255 255 256 257 257 257 258 259
286 280 274 270 266 265 264 263 263 263 264 263 262 261 263 265 265 265 268 271 270 268 267 265 267 273 275 272 273 274 269 265 262 256 253 255 256 256 256 256 256 258
293 287 281 276 273 271 270 268 267 266 266 265 264 262 263 264 262 261 266 276 279 275 272 269 268 272 276 276 276 275 271 266 259 254 254 255 256 255 255 256 257 257